SB KEPS @ AMSAT $ORB11287.O Orbital Elements 11287.OSCAR
HR AMSAT ORBITAL ELEMENTS FOR OSCAR SATELLITES FROM WA5QGD FORT WORTH,TX October 14, 2011 Send Subscribe/unsubscribe to KEPS at http://www.amsat.org/mailman/listinfo/keps BID: ORB11287.O TO ALL RADIO AMATEURS BT
Satellite: AO-07 Catalog number: 07530 Epoch time: 11287.06697827 Element set: 204 Inclination: 101.3973 deg RA of node: 288.9328 deg Eccentricity: 0.0012191 Arg of perigee: 045.8435 deg Mean anomaly: 314.3641 deg Mean motion: 12.53584521 rev/day Decay rate: -2.7e-07 rev/day^2 Epoch rev: 68908 Checksum: 309
Satellite: FO-29 Catalog number: 24278 Epoch time: 11285.93312805 Element set: 0696 Inclination: 098.5648 deg RA of node: 054.2908 deg Eccentricity: 0.0349918 Arg of perigee: 312.2752 deg Mean anomaly: 044.9200 deg Mean motion: 13.52965894 rev/day Decay rate: -1.8e-07 rev/day^2 Epoch rev: 74838 Checksum: 349
Satellite: SO-33 Catalog number: 25509 Epoch time: 11285.43589700 Element set: 0076 Inclination: 031.4327 deg RA of node: 301.1425 deg Eccentricity: 0.0353862 Arg of perigee: 187.0821 deg Mean anomaly: 172.4752 deg Mean motion: 14.28458793 rev/day Decay rate: 4.65e-06 rev/day^2 Epoch rev: 67705 Checksum: 312
Satellite: RS-22 Catalog number: 27939 Epoch time: 11287.04032676 Element set: 715 Inclination: 097.8306 deg RA of node: 135.2756 deg Eccentricity: 0.0013101 Arg of perigee: 333.7442 deg Mean anomaly: 026.3104 deg Mean motion: 14.63679573 rev/day Decay rate: 5.98e-06 rev/day^2 Epoch rev: 42972 Checksum: 311
Satellite: VO-52 Catalog number: 28650 Epoch time: 11287.04959442 Element set: 923 Inclination: 097.6290 deg RA of node: 324.7909 deg Eccentricity: 0.0027656 Arg of perigee: 130.2995 deg Mean anomaly: 230.0655 deg Mean motion: 14.82250936 rev/day Decay rate: 1.028e-05 rev/day^2 Epoch rev: 34835 Checksum: 324
Satellite: SO-67 Catalog number: 35870 Epoch time: 11287.16187899 Element set: 311 Inclination: 097.2683 deg RA of node: 326.5024 deg Eccentricity: 0.0002067 Arg of perigee: 012.0774 deg Mean anomaly: 072.2248 deg Mean motion: 15.21366659 rev/day Decay rate: 4.834e-05 rev/day^2 Epoch rev: 11502 Checksum: 308
Satellite: HO-68 Catalog number: 36122 Epoch time: 11287.11489827 Element set: 828 Inclination: 100.4022 deg RA of node: 346.0522 deg Eccentricity: 0.0007421 Arg of perigee: 316.3694 deg Mean anomaly: 043.6838 deg Mean motion: 13.16288811 rev/day Decay rate: -4.4e-07 rev/day^2 Epoch rev: 8788 Checksum: 304
/EX SB KEPS @ AMSAT $ORB11287.D Orbital Elements 11287.MICROS
HR AMSAT ORBITAL ELEMENTS FOR THE MICROSATS FROM WA5QGD FORT WORTH,TX October 14, 2011 Send Subscribe/unsubscribe to KEPS at http://www.amsat.org/mailman/listinfo/keps BID: ORB11287.D TO ALL RADIO AMATEURS BT
Satellite: UO-11 Catalog number: 14781 Epoch time: 11286.85827410 Element set: 678 Inclination: 097.9916 deg RA of node: 343.1071 deg Eccentricity: 0.0009994 Arg of perigee: 111.2076 deg Mean anomaly: 249.0207 deg Mean motion: 14.80075791 rev/day Decay rate: 6.97e-06 rev/day^2 Epoch rev: 48334 Checksum: 326
Satellite: AO-16 Catalog number: 20439 Epoch time: 11286.88071389 Element set: 302 Inclination: 098.3972 deg RA of node: 232.6038 deg Eccentricity: 0.0010768 Arg of perigee: 167.1633 deg Mean anomaly: 192.9827 deg Mean motion: 14.31950993 rev/day Decay rate: 1.73e-06 rev/day^2 Epoch rev: 13460 Checksum: 320
Satellite: LO-19 Catalog number: 20442 Epoch time: 11285.89370759 Element set: 0234 Inclination: 098.3618 deg RA of node: 235.5548 deg Eccentricity: 0.0012007 Arg of perigee: 163.3687 deg Mean anomaly: 196.7884 deg Mean motion: 14.32174000 rev/day Decay rate: 1.68e-06 rev/day^2 Epoch rev: 13464 Checksum: 315
Satellite: AO-27 Catalog number: 22825 Epoch time: 11285.89269331 Element set: 0938 Inclination: 098.5442 deg RA of node: 227.9791 deg Eccentricity: 0.0007560 Arg of perigee: 291.5029 deg Mean anomaly: 068.5344 deg Mean motion: 14.29373212 rev/day Decay rate: 1.71e-06 rev/day^2 Epoch rev: 94100 Checksum: 318
Satellite: IO-26 Catalog number: 22826 Epoch time: 11285.87047635 Element set: 0692 Inclination: 098.5369 deg RA of node: 228.3950 deg Eccentricity: 0.0008220 Arg of perigee: 287.7128 deg Mean anomaly: 072.3152 deg Mean motion: 14.29638368 rev/day Decay rate: 1.91e-06 rev/day^2 Epoch rev: 94112 Checksum: 326
Satellite: GO-32 Catalog number: 25397 Epoch time: 11285.74089370 Element set: 0603 Inclination: 098.3373 deg RA of node: 272.0793 deg Eccentricity: 0.0000446 Arg of perigee: 338.1266 deg Mean anomaly: 021.9878 deg Mean motion: 14.23223464 rev/day Decay rate: -5.4e-07 rev/day^2 Epoch rev: 68868 Checksum: 324
Satellite: NO-44 Catalog number: 26931 Epoch time: 11285.70855543 Element set: 0873 Inclination: 067.0528 deg RA of node: 040.6991 deg Eccentricity: 0.0004924 Arg of perigee: 257.4134 deg Mean anomaly: 102.6416 deg Mean motion: 14.29690221 rev/day Decay rate: -1.2e-07 rev/day^2 Epoch rev: 52372 Checksum: 293
Satellite: SO-50 Catalog number: 27607 Epoch time: 11286.49840168 Element set: 588 Inclination: 064.5611 deg RA of node: 328.1289 deg Eccentricity: 0.0081633 Arg of perigee: 296.7166 deg Mean anomaly: 062.5555 deg Mean motion: 14.71865798 rev/day Decay rate: 9.01e-06 rev/day^2 Epoch rev: 47350 Checksum: 343
Satellite: CO-55 Catalog number: 27844 Epoch time: 11285.56848757 Element set: 219 Inclination: 098.7079 deg RA of node: 292.5760 deg Eccentricity: 0.0009012 Arg of perigee: 218.6768 deg Mean anomaly: 141.3774 deg Mean motion: 14.20860099 rev/day Decay rate: 2.90e-06 rev/day^2 Epoch rev: 42958 Checksum: 350
Satellite: CO-57 Catalog number: 27848 Epoch time: 11286.51633287 Element set: 166 Inclination: 098.7148 deg RA of node: 292.7411 deg Eccentricity: 0.0009039 Arg of perigee: 220.1784 deg Mean anomaly: 139.8720 deg Mean motion: 14.20634069 rev/day Decay rate: 2.34e-06 rev/day^2 Epoch rev: 42966 Checksum: 326
Satellite: AO-51 Catalog number: 28375 Epoch time: 11286.65828277 Element set: 94 Inclination: 098.1126 deg RA of node: 258.9654 deg Eccentricity: 0.0084948 Arg of perigee: 070.7344 deg Mean anomaly: 290.3026 deg Mean motion: 14.40793964 rev/day Decay rate: 2.25e-06 rev/day^2 Epoch rev: 38312 Checksum: 336
Satellite: CP3 Catalog number: 31129 Epoch time: 11286.97735737 Element set: 992 Inclination: 097.8923 deg RA of node: 304.3010 deg Eccentricity: 0.0102372 Arg of perigee: 171.1897 deg Mean anomaly: 189.1181 deg Mean motion: 14.52603752 rev/day Decay rate: 8.79e-06 rev/day^2 Epoch rev: 23808 Checksum: 321
Satellite: CO-65 Catalog number: 32785 Epoch time: 11285.21457799 Element set: 0121 Inclination: 097.8360 deg RA of node: 346.7959 deg Eccentricity: 0.0015262 Arg of perigee: 151.0171 deg Mean anomaly: 209.1891 deg Mean motion: 14.82200896 rev/day Decay rate: 1.835e-05 rev/day^2 Epoch rev: 18687 Checksum: 335
Satellite: PRISM Catalog number: 33493 Epoch time: 11287.13644291 Element set: 50 Inclination: 098.1402 deg RA of node: 057.6133 deg Eccentricity: 0.0020058 Arg of perigee: 019.5534 deg Mean anomaly: 340.6434 deg Mean motion: 14.82121792 rev/day Decay rate: 3.344e-05 rev/day^2 Epoch rev: 14713 Checksum: 266
Satellite: SOHLA-1 Catalog number: 33496 Epoch time: 11287.26593773 Element set: 542 Inclination: 098.0898 deg RA of node: 035.9542 deg Eccentricity: 0.0007428 Arg of perigee: 101.0585 deg Mean anomaly: 259.1458 deg Mean motion: 14.69691288 rev/day Decay rate: 5.69e-06 rev/day^2 Epoch rev: 14597 Checksum: 353
Satellite: TISAT-1 Catalog number: 36799 Epoch time: 11287.14137314 Element set: 321 Inclination: 098.0908 deg RA of node: 356.5126 deg Eccentricity: 0.0014127 Arg of perigee: 251.0278 deg Mean anomaly: 108.9418 deg Mean motion: 14.80833386 rev/day Decay rate: 2.120e-05 rev/day^2 Epoch rev: 6791 Checksum: 298
Satellite: STUDSAT Catalog number: 36801 Epoch time: 11287.26568741 Element set: 256 Inclination: 098.0941 deg RA of node: 356.5975 deg Eccentricity: 0.0012645 Arg of perigee: 240.0731 deg Mean anomaly: 119.9224 deg Mean motion: 14.81336643 rev/day Decay rate: 5.963e-05 rev/day^2 Epoch rev: 6792 Checksum: 317
Satellite: OOREOS Catalog number: 37224 Epoch time: 11283.12196780 Element set: 0302 Inclination: 071.9656 deg RA of node: 145.3580 deg Eccentricity: 0.0018647 Arg of perigee: 057.9354 deg Mean anomaly: 302.3616 deg Mean motion: 14.77183931 rev/day Decay rate: 9.55e-06 rev/day^2 Epoch rev: 04784 Checksum: 307
Satellite: FO-69 Catalog number: 37227 Epoch time: 11286.13823940 Element set: 0159 Inclination: 071.9690 deg RA of node: 139.1788 deg Eccentricity: 0.0015368 Arg of perigee: 060.4529 deg Mean anomaly: 299.8162 deg Mean motion: 14.76685262 rev/day Decay rate: 6.56e-06 rev/day^2 Epoch rev: 02673 Checksum: 346
Satellite: NANOSALD Catalog number: 37361 Epoch time: 11242.25215765 Element set: 0351 Inclination: 071.9735 deg RA of node: 221.4469 deg Eccentricity: 0.0025730 Arg of perigee: 245.3422 deg Mean anomaly: 114.7284 deg Mean motion: 15.22200108 rev/day Decay rate: 1.80112e-03 rev/day^2 Epoch rev: 03331 Checksum: 248
Satellite: FO-70 Catalog number: 37380 Epoch time: 11286.17068059 Element set: 0293 Inclination: 071.9721 deg RA of node: 139.3575 deg Eccentricity: 0.0015926 Arg of perigee: 057.2708 deg Mean anomaly: 302.9986 deg Mean motion: 14.76448091 rev/day Decay rate: 5.58e-06 rev/day^2 Epoch rev: 04827 Checksum: 338
/EX SB KEPS @ AMSAT $ORB11287.W Orbital Elements 11287.WEATHER
HR AMSAT ORBITAL ELEMENTS FOR WEATHER SATELLITES FROM WA5QGD FORT WORTH,TX October 14, 2011 Send Subscribe/unsubscribe to KEPS at http://www.amsat.org/mailman/listinfo/keps BID: ORB11287.W TO ALL RADIO AMATEURS BT
Satellite: NOAA-10 Catalog number: 16969 Epoch time: 11285.68694046 Element set: 0666 Inclination: 098.6098 deg RA of node: 313.8265 deg Eccentricity: 0.0011421 Arg of perigee: 240.8368 deg Mean anomaly: 119.1676 deg Mean motion: 14.27484171 rev/day Decay rate: 1.22e-06 rev/day^2 Epoch rev: 30441 Checksum: 315
